Погода в Юлдыбаеве

Россия / Республика Башкортостан     52°20′32″N   57°52′28″E
темп.,
°C
ветер,
м/с
пор.,
м/с
влажн.,
%
обл.,
%
осадки,
мм/ч
давл.,
гПа
погр.,
м
12 апреля, пн
пн1223:000вюв119996 0.0 103860
02:00−1вюв119861 0.0 103813
05:00−2ссв009837 0.0 103810
08:00+2сз11815 0.0 103718
11:00+9ссв116032 0.0 1035112
14:00+13ссв126126 0.0 1034410
17:00+12в127710 0.0 1034145
20:00+6всв118536 0.0 103610
13 апреля, вт
вт1323:00+4св228229 0.0 103711
02:00+3св379279 0.0 1038113
05:00+2всв3119210 0.0 1039196
08:00+4всв51199100 0.0 1040432
11:00+6в51097100 0.0 1040424
14:00+8в598987 0.0 1039515
17:00+10в4783100 0.0 1038715
20:00+7в36905 0.0 1037101
14 апреля, ср
ср1423:00+5вюв399197 0.0 1037193
02:00+4в389599 0.0 1036174
05:00+3всв26957 0.0 1036121
08:00+4всв38913 0.0 1035230
11:00+9в58624 0.0 1033483
14:00+12в68455 0.0 1031703
17:00+13в57434 0.0 1029725
20:00+9в39640 0.0 1029161
15 апреля, чт
чт1523:00+6в37750 0.0 1029136
02:00+4всв22745 0.0 102915
05:00+3всв21755 0.0 102911
08:00+5всв13695 0.0 102892
11:00+11в344652 0.0 1026379
14:00+15вюв333412 0.0 1023615
17:00+16вюв223268 0.0 1021686
20:00+11вюв1152100 0.0 102110
16 апреля, пт
пт1623:00+9с0055100 0.0 102010
02:00+7ссз1155100 0.0 101910
05:00+6ссз2257100 0.0 101810
08:00+8ссз225888 0.0 101738
11:00+14ссв2338100 0.0 1014476
14:00+17с222699 0.0 10131345
17:00+17сз4424100 0.0 10111690
20:00+11зсз375076 0.0 1011119